This is the latest recevied weather packets stored in our database for station/object IU2EVW-3. If no packets are shown the sender has not sent any weather packets the latest 1 day(s).
| Time | Temp. | Humidity | Pressure | Rain* | Wind** | Luminosity | Snow |
|---|---|---|---|---|---|---|---|
| 1788593856 | 26.11° C | 44% | 1016.3 hPa | - | - | - | - |
| 1788592655 | 25° C | 46% | 1016.3 hPa | - | - | - | - |
| 1788591454 | 25° C | 46% | 1016.3 hPa | - | - | - | - |
| 1788590253 | 23.89° C | 46% | 1016.3 hPa | - | - | - | - |
| 1788589051 | 23.33° C | 48% | 1016.3 hPa | - | - | - | - |
| 1788587850 | 22.78° C | 48% | 1016.4 hPa | - | - | - | - |
| 1788586649 | 22.78° C | 49% | 1016.2 hPa | - | - | - | - |
| 1788585448 | 22.22° C | 52% | 1016.1 hPa | - | - | - | - |
| 1788584247 | 22.22° C | 57% | 1015.7 hPa | - | - | - | - |
| 1788583046 | 22.22° C | 57% | 1015.5 hPa | - | - | - | - |
| 1788581844 | 22.78° C | 58% | 1015.3 hPa | - | - | - | - |
| 1788580643 | 22.78° C | 59% | 1015.5 hPa | - | - | - | - |
| 1788579442 | 22.78° C | 59% | 1015.6 hPa | - | - | - | - |
| 1788578241 | 22.78° C | 60% | 1015.8 hPa | - | - | - | - |
| 1788577040 | 22.78° C | 59% | 1015.5 hPa | - | - | - | - |
| 1788575839 | 23.33° C | 57% | 1015.7 hPa | - | - | - | - |
| 1788574637 | 23.89° C | 54% | 1015.7 hPa | - | - | - | - |
| 1788573436 | 23.89° C | 48% | 1015.6 hPa | - | - | - | - |
| 1788572235 | 24.44° C | 43% | 1015.9 hPa | - | - | - | - |
| 1788571034 | 24.44° C | 38% | 1015.7 hPa | - | - | - | - |
| 1788569832 | 24.44° C | 36% | 1016 hPa | - | - | - | - |
| 1788568631 | 25° C | 35% | 1016 hPa | - | - | - | - |
| 1788567430 | 25° C | 35% | 1016.1 hPa | - | - | - | - |
| 1788566229 | 25° C | 37% | 1016.2 hPa | - | - | - | - |
| 1788565027 | 25° C | 37% | 1016.3 hPa | - | - | - | - |
* Rain since midnight (hover to see other rain measurements)
** Current wind speed in m/s (hover to see current wind gust speed)